Weather in Karavayevo

Russia / Vladimir Oblast     56°07′55″N   39°31′10″E
temp.,
°C
wind,
m/s
gust,
m/s
humid.,
%
clouds,
%
prec.,
mm/h
press.,
hPa
HPBL,
m
17 may, mon
mon1700:00+12wnw11935 0.0 101410
03:00+12ne1192100 0.0 101510
06:00+14e22875 0.0 101664
09:00+20ese346692 0.0 1016480
12:00+23e45565 0.0 10151039
15:00+25ese465110 0.0 10141349
18:00+24e4969100 0.0 1012537
21:00+19se3118428 0.4 1013252
18 may, tue
tue1800:00+15se31188100 0.0 1013201
03:00+14ese3109128 0.0 1012177
06:00+16se414775 0.0 1013323
09:00+22se5145623 0.0 1012583
12:00+26se5114023 0.0 10121351
15:00+28se5113925 0.0 10112981
18:00+24se410535 0.0 1010626
21:00+19ese415705 0.0 1011487
19 may, wed
wed1900:00+17ese4167913 0.0 1010410
03:00+16se415795 0.0 1010383
06:00+16se413731 0.0 1010385
09:00+22se5155592 0.0 1010740
12:00+26se611420 0.0 10101444
15:00+28se6134353 0.0 10093764
18:00+25se4115437 0.0 1009875
21:00+20ese4157181 0.1 1010448
20 may, thu
thu2000:00+17se31383100 0.3 1010346
03:00+16ene239061 0.3 101066
06:00+17e411878 0.1 1009394
09:00+20ese511715 0.1 1007748
12:00+24se7145455 0.0 10072119
15:00+21sse713705 1.1 10081644
18:00+17s613785 0.6 10101388
21:00+14s411855 0.7 1012637
21 may, fri
fri2100:00+13s4138747 0.0 1011487
03:00+12s4109878 0.0 1012398
06:00+12sw51086100 0.1 1013840
09:00+14wsw51069100 0.1 1014732
12:00+16sw586110 0.0 10161139
15:00+18sw5754100 0.0 10171670
18:00+18ssw3561100 0.0 10171216
21:00+15sw3880100 0.1 1018399